Regional Weather Roundup
Issued by NWS

Home | Current Version | Previous Version | Text Only | Print | Product List | Glossary On
Versions: 1 2 3 4 5 6 7 8 9 10 11 12 13 14 15 16 17 18 19 20 21 22 23 24 25 26 27 28 29 30 31 32 33 34 35 36 37 38 39 40 41 42 43 44 45 46 47 48 49 50
000
ASUS43 KOAX 271310
RWRNE

WEATHER ROUNDUP FOR NEBRASKA
NATIONAL WEATHER SERVICE OMAHA NE
700 AM CST TUE JAN 27 2015

NOTES: SATELLITE DATA IS BEING USED TO AUGMENT CLOUD COVER ABOVE
       12000 FEET.
       "FAIR" INDICATES FEW OR NO CLOUDS BELOW 12,000 FEET WITH NO
       SIGNIFICANT WEATHER AND/OR OBSTRUCTIONS TO VISIBILITY.

  * THESE STATIONS DO NOT REPORT WEATHER SUCH AS RAIN...SNOW OR FOG.

NEZ001>004-019>022-054>056-271400-
NEBRASKA PANHANDLE

CITY           SKY/WX    TMP DP  RH WIND       PRES   REMARKS
SCOTTSBLUFF      N/A     30  26  85 MISG      30.07S
ALLIANCE       CLEAR     31  27  85 W12       30.03F WCI  22
CHADRON        CLEAR     35  28  75 SW9       30.01F WCI  28
KIMBALL        PTCLDY    36  25  64 W12       30.08S WCI  28
SIDNEY         CLEAR     37  26  64 NW15      30.08S WCI  28
$$

NEZ057>060-069>072-079>082-271400-
SOUTHWEST NEBRASKA

CITY           SKY/WX    TMP DP  RH WIND       PRES   REMARKS
NORTH PLATTE   CLEAR     23  20  88 CALM      30.04S
IMPERIAL       PTCLDY    36  27  69 W7        30.07R WCI  30
LEXINGTON      CLEAR     28  25  89 W6        30.04R WCI  21
MCCOOK         PTCLDY    32  27  81 W9        30.06S WCI  24
OGALLALA       PTCLDY    30  28  90 W7        30.06S WCI  23
$$

NEZ005>010-023>029-035>040-094-271400-
NORTH CENTRAL NEBRASKA

CITY           SKY/WX    TMP DP  RH WIND       PRES   REMARKS
VALENTINE      PTCLDY    30  27  88 W8        29.97F WCI  22
AINSWORTH      CLEAR     33  29  85 SW3       29.97F
BROKEN BOW     CLEAR     30  26  85 CALM      30.00F
O`NEILL        CLEAR     33  29  86 S9        30.01R WCI  25
ORD            CLEAR     25  21  85 CALM      30.01F
THEDFORD       CLEAR     35  31  85 W7        30.01S WCI  29
$$

NEZ041-046>049-061>064-073>077-083>087-271400-
SOUTH CENTRAL NEBRASKA

CITY           SKY/WX    TMP DP  RH WIND       PRES   REMARKS
GRAND ISLAND   PTCLDY    34  30  85 SE8       30.05S WCI  27
AURORA         PTCLDY    34  29  82 S8        30.06R WCI  27
HASTINGS       CLEAR     35  28  75 S6        30.04S WCI  30
HEBRON         PTCLDY    25  22  88 CALM      30.09R
HOLDREGE       CLEAR     31  26  81 W5        30.04R WCI  26
KEARNEY *      CLEAR     27  23  86 S5        30.04S WCI  21
YORK           CLEAR     30  27  86 CALM      30.07S
$$

NEZ011>018-030>034-042>045-271400-
NORTHEAST NEBRASKA

CITY           SKY/WX    TMP DP  RH WIND       PRES   REMARKS
NORFOLK        CLEAR     25  24  96 SE3       30.06R
ALBION         PTCLDY    26  22  87 CALM      30.05S
BLAIR          CLEAR     31  29  92 CALM      30.09R
COLUMBUS *     CLEAR     23  18  80 CALM      30.09R
FREMONT        CLEAR     28  27  95 CALM      30.10R
TEKAMAH        CLEAR     25  23  92 CALM      30.11R
WAYNE          CLEAR     22  21  94 CALM      30.09R
$$

NEZ050>053-065>068-078-088>093-271400-
SOUTHEAST NEBRASKA

CITY           SKY/WX    TMP DP  RH WIND       PRES   REMARKS
LINCOLN        CLEAR     21  18  88 CALM      30.11R
OMAHA EPPLEY   CLEAR     26  24  92 CALM      30.11R
BEATRICE       CLEAR     25  23  91 CALM      30.10R
FALLS CITY     PTCLDY    28  25  88 CALM      30.12R
NEBRASKA CITY  CLEAR     32  30  94 CALM      30.12R
PLATTSMOUTH    CLEAR     32  30  92 SW3       30.11R
$$

NEZ044-045-051>053-067-271400-
OMAHA AREA

CITY           SKY/WX    TMP DP  RH WIND       PRES   REMARKS
OMAHA EPPLEY   CLEAR     26  24  92 CALM      30.11R
BLAIR          CLEAR     31  29  92 CALM      30.09R
FREMONT        CLEAR     28  27  95 CALM      30.10R
MILLARD        CLEAR     28  26  94 CALM      30.11R
OFFUTT AFB     CLEAR     24  22  95 S1        30.11R
PLATTSMOUTH    CLEAR     32  30  92 SW3       30.11R
WAHOO          FAIR      25  23  91 CALM      30.10R
$$


USA.gov is the U.S. government's official web portal to all federal, state and local government web resources and services.